Santander Airport, Spain

10:34 AM CEST on June 25, 2017 (GMT +0200)
Santander Airport

Weather History for LEXJ - January, 2009

Change the Weather History Date:

Tuesday, January 13, 2009

  Actual Average Record
Temperature  
Mean Temperature 47 °F -  
Max Temperature 50 °F 52 °F 61 °F (2015)
Min Temperature 44 °F 42 °F 32 °F (2003)
Degree Days  
Heating Degree Days 18    
Moisture  
Dew Point 42 °F    
Average Humidity 82    
Maximum Humidity 93    
Minimum Humidity 50    
Precipitation  
Precipitation 0.00 in - - ()
Sea Level Pressure  
Sea Level Pressure 30.09 in    
Wind  
Wind Speed 9 mph ()    
Max Wind Speed 15 mph    
Max Gust Speed -    
Visibility 5.9 miles    
Events Rain    
Averages and records for this station are not official NWS values.
T = Trace of Precipitation, MM = Missing Value Source: Averaged Metar Reports

Daily Weather History Graph

Daily Weather History Graph

Search for Another Location

Airport or City:

Trip Planner

Search our weather history database for the weather conditions in past years. The results will help you decide how hot, cold, wet, or windy it might be!

Date:

Astronomy

Jan. 13, 2009 Rise Set
Actual Time 8:45 AM CET 6:02 PM CET
Civil Twilight 8:14 AM CET 6:34 PM CET
Nautical Twilight 7:38 AM CET 7:09 PM CET
Astronomical Twilight 7:04 AM CET 7:44 PM CET
Moon 9:16 PM CET (1/13) 10:14 AM CET (1/13)
Length of Visible Light 10h 20m
Length of Day
9h 16m
Waning Gibbous, 92% of the Moon is Illuminated
Jan 13
Waning Gibbous
Jan 18
Last Quarter
Jan 26
New
Feb 3
First Quarter
Feb 9
Full

Hourly Weather History & Observations

Time (CET) Temp. Windchill Dew Point Humidity Pressure Visibility Wind Dir Wind Speed Gust Speed Precip Events Conditions
5:30 AM 48.2 °F - 30.2 °F 50% 30.06 in 6.2 mi WSW 5.8 mph - N/A   Mostly Cloudy
6:00 AM 46.4 °F 40.1 °F 37.4 °F 71% 30.06 in 6.2 mi South 15.0 mph - N/A Rain Light Rain
6:30 AM 44.6 °F 38.8 °F 37.4 °F 76% 30.06 in 6.2 mi South 11.5 mph - N/A Rain Light Rain
7:00 AM 44.6 °F 40.2 °F 37.4 °F 76% 30.04 in 6.2 mi South 8.1 mph - N/A Rain Light Rain
7:30 AM 44.6 °F 40.2 °F 39.2 °F 81% 30.04 in 6.2 mi SW 8.1 mph - N/A Rain Light Rain
8:00 AM 46.4 °F 41.5 °F 39.2 °F 76% 30.04 in 6.2 mi SSW 10.4 mph - N/A Rain Light Rain
8:30 AM 44.6 °F 39.2 °F 39.2 °F 81% 30.04 in 6.2 mi SSW 10.4 mph - N/A Rain Light Rain
9:00 AM 44.6 °F 38.8 °F 39.2 °F 81% 30.04 in 4.3 mi SSW 11.5 mph - N/A Rain Light Rain
9:30 AM 44.6 °F 39.2 °F 41.0 °F 87% 30.04 in 4.3 mi SW 10.4 mph - N/A Rain Light Rain
10:00 AM 44.6 °F 38.8 °F 41.0 °F 87% 30.06 in 4.3 mi SW 11.5 mph - N/A Rain Light Rain
10:30 AM 44.6 °F 39.2 °F 41.0 °F 87% 30.06 in 5.0 mi SSW 10.4 mph - N/A Rain Light Rain
11:00 AM 46.4 °F 41.9 °F 41.0 °F 81% 30.06 in 6.2 mi SSW 9.2 mph - N/A Rain Light Rain
11:30 AM 46.4 °F 41.9 °F 41.0 °F 81% 30.06 in 6.2 mi SW 9.2 mph - N/A   Mostly Cloudy
12:00 PM 46.4 °F 41.1 °F 41.0 °F 81% 30.09 in 6.2 mi SW 11.5 mph - N/A   Mostly Cloudy
12:30 PM 46.4 °F 41.9 °F 41.0 °F 81% 30.09 in 6.2 mi SSW 9.2 mph - N/A   Mostly Cloudy
1:00 PM 46.4 °F 41.9 °F 42.8 °F 87% 30.06 in 6.2 mi SSW 9.2 mph - N/A   Mostly Cloudy
1:30 PM 46.4 °F 41.9 °F 42.8 °F 87% 30.06 in 6.2 mi SSW 9.2 mph - N/A   Mostly Cloudy
2:00 PM 48.2 °F - 44.6 °F 87% 30.06 in 6.2 mi SW 10.4 mph - N/A   Mostly Cloudy
2:30 PM 50.0 °F - 44.6 °F 82% 30.06 in 6.2 mi West 13.8 mph - N/A   Mostly Cloudy
3:30 PM 50.0 °F - 44.6 °F 82% 30.06 in 6.2 mi WSW 11.5 mph - N/A   Scattered Clouds
4:00 PM 50.0 °F - 44.6 °F 82% 30.06 in 6.2 mi West 12.7 mph - N/A   Scattered Clouds
4:30 PM 50.0 °F - 44.6 °F 82% 30.09 in 6.2 mi West 12.7 mph - N/A   Mostly Cloudy
5:00 PM 50.0 °F - 44.6 °F 82% 30.09 in 6.2 mi West 15.0 mph - N/A   Scattered Clouds
5:30 PM 50.0 °F - 44.6 °F 82% 30.09 in 6.2 mi West 11.5 mph - N/A   Mostly Cloudy
6:00 PM 50.0 °F - 44.6 °F 82% 30.12 in 6.2 mi West 13.8 mph - N/A Rain Light Rain
6:30 PM 48.2 °F - 44.6 °F 87% 30.12 in 6.2 mi West 10.4 mph - N/A   Mostly Cloudy
7:00 PM 48.2 °F - 44.6 °F 87% 30.12 in 6.2 mi WSW 8.1 mph - N/A   Scattered Clouds
7:30 PM 48.2 °F - 42.8 °F 82% 30.15 in 4.3 mi West 15.0 mph - N/A Rain Rain
8:30 PM 46.4 °F 44.3 °F 44.6 °F 93% 30.15 in 6.2 mi SW 4.6 mph - N/A   Scattered Clouds
9:00 PM 48.2 °F - 44.6 °F 87% 30.18 in 6.2 mi West 9.2 mph - N/A   Mostly Cloudy
9:30 PM 46.4 °F 42.9 °F 42.8 °F 87% 30.15 in 6.2 mi SW 6.9 mph - N/A   Mostly Cloudy
10:00 PM 46.4 °F 42.4 °F 42.8 °F 87% 30.18 in 6.2 mi SSW 8.1 mph - N/A   Mostly Cloudy
10:30 PM 46.4 °F 42.4 °F 42.8 °F 87% 30.18 in 6.2 mi SSW 8.1 mph - N/A   Scattered Clouds
11:00 PM 46.4 °F 42.4 °F 42.8 °F 87% 30.18 in 6.2 mi SSW 8.1 mph - N/A   Scattered Clouds